TimeHST,TemperatureF,Dew PointF,Humidity,Sea Level PressureIn,VisibilityMPH,Wind Direction,Wind SpeedMPH,Gust SpeedMPH,PrecipitationIn,Events,Conditions,WindDirDegrees,DateUTC
12:53 AM,72.0,66.9,84,30.03,10.0,SSW,3.5,-,N/A,,Mostly Cloudy,200,2013-05-23 10:53:00
1:53 AM,71.1,66.0,84,30.02,10.0,SW,3.5,-,N/A,,Mostly Cloudy,220,2013-05-23 11:53:00
2:53 AM,70.0,66.9,90,30.01,10.0,Calm,Calm,-,N/A,,Mostly Cloudy,0,2013-05-23 12:53:00
3:53 AM,69.1,66.0,90,30.01,10.0,Calm,Calm,-,N/A,,Scattered Clouds,0,2013-05-23 13:53:00
4:53 AM,69.1,64.9,87,30.02,10.0,Calm,Calm,-,N/A,,Mostly Cloudy,0,2013-05-23 14:53:00
5:53 AM,69.1,64.0,84,30.03,10.0,SW,5.8,-,N/A,,Mostly Cloudy,230,2013-05-23 15:53:00
6:53 AM,72.0,64.9,78,30.04,10.0,WSW,5.8,-,N/A,,Scattered Clouds,240,2013-05-23 16:53:00
7:53 AM,77.0,64.9,66,30.06,10.0,WSW,3.5,-,0.00,,Scattered Clouds,240,2013-05-23 17:53:00
8:53 AM,78.1,66.9,68,30.07,10.0,Calm,Calm,-,0.00,,Mostly Cloudy,0,2013-05-23 18:53:00
9:53 AM,82.0,68.0,62,30.07,10.0,NE,9.2,-,0.00,Rain,Light Rain,50,2013-05-23 19:53:00
10:53 AM,80.1,68.0,67,30.07,10.0,ENE,11.5,-,0.00,,Mostly Cloudy,70,2013-05-23 20:53:00
11:53 AM,82.0,66.9,60,30.06,10.0,East,9.2,-,0.00,Rain,Light Rain,80,2013-05-23 21:53:00
12:53 PM,82.9,66.0,56,30.04,10.0,East,6.9,-,0.00,Rain,Light Rain,80,2013-05-23 22:53:00
1:53 PM,84.0,68.0,58,30.02,10.0,NE,8.1,-,0.00,,Scattered Clouds,40,2013-05-23 23:53:00
2:53 PM,82.0,66.0,58,30.01,10.0,NNE,10.4,-,N/A,,Scattered Clouds,20,2013-05-24 00:53:00
3:53 PM,80.1,66.0,62,30.01,10.0,Variable,5.8,-,N/A,,Mostly Cloudy,0,2013-05-24 01:53:00
4:53 PM,79.0,66.0,64,30.00,10.0,ENE,5.8,-,0.00,,Mostly Cloudy,70,2013-05-24 02:53:00
5:48 PM,78.8,66.2,65,30.01,10.0,NE,6.9,-,N/A,,Overcast,50,2013-05-24 03:48:00
5:53 PM,78.1,68.0,71,30.01,10.0,NE,6.9,-,N/A,,Overcast,50,2013-05-24 03:53:00
6:09 PM,77.0,68.0,74,30.02,10.0,ENE,6.9,-,N/A,,Overcast,70,2013-05-24 04:09:00
6:53 PM,75.9,66.9,74,30.03,10.0,NE,4.6,-,N/A,,Overcast,50,2013-05-24 04:53:00
7:53 PM,75.9,64.9,69,30.05,10.0,NNE,8.1,-,N/A,,Overcast,30,2013-05-24 05:53:00
8:53 PM,73.9,66.9,79,30.06,10.0,WNW,6.9,-,N/A,,Overcast,290,2013-05-24 06:53:00
9:53 PM,73.0,66.9,81,30.07,10.0,Calm,Calm,-,N/A,,Mostly Cloudy,0,2013-05-24 07:53:00
10:25 PM,73.0,66.9,81,30.08,10.0,WSW,3.5,-,N/A,,Mostly Cloudy,240,2013-05-24 08:25:00
10:38 PM,73.0,66.9,81,30.09,10.0,SW,4.6,-,N/A,,Overcast,230,2013-05-24 08:38:00
10:53 PM,73.0,66.9,81,30.08,10.0,SW,3.5,-,N/A,,Overcast,220,2013-05-24 08:53:00
11:53 PM,72.0,68.0,87,30.07,10.0,West,4.6,-,0.00,,Scattered Clouds,280,2013-05-24 09:53:00